Terminal Aerodrome Forecast
Issued by NWS Caribou, ME

Home | Current Version | Previous Version | Text Only | Print | Product List | Glossary On
Versions: 1 2 3 4 5 6 7 8 9 10 11 12 13 14 15 16 17
970
FTUS41 KCAR 121128
TAFBGR
TAF
KBGR 121128Z 1212/1312 28006KT P6SM FEW070
     FM121800 21006KT P6SM SCT060 OVC150
     FM122300 17005KT P6SM BKN045 OVC100
     FM130400 12004KT P6SM OVC035
     FM130800 09004KT 2SM -SN OVC022=

USA.gov is the U.S. government's official web portal to all federal, state and local government web resources and services.